{"data":{"norad_id":53256,"epoch":"2026-09-20T04:00:03.000096Z","epoch_age_seconds":104196,"freshness":"FRESH","line1":"1 53256U 22086Q   26263.16670139  .00058499  00000+0  17803-2 0  9996","line2":"2 53256  53.1598  38.8230 0000659  98.0948 315.9292 15.33476160  5783","mean_motion":15.3347616,"eccentricity":6.59e-5,"inclination_deg":53.1598,"raan_deg":38.823,"arg_perigee_deg":98.0948,"mean_anomaly_deg":315.9292,"bstar":0.0017803,"rev_number":578,"period_min":93.904296497182,"perigee_km":464.99947339695,"apogee_km":465.90145822494,"semimajor_km":6843.5874658109,"source":"CELESTRAK","updated_at":"2026-09-20T09:00:40.215208Z"}}